Change the Weather History Date:

Wednesday, January 9, 2013

  Actual Average (KWRL) Record (KWRL)
Temperature  
Mean Temperature 26 °F 16 °F  
Max Temperature 32 °F 30 °F 61 °F (1995)
Min Temperature 21 °F 3 °F -31 °F (1973)
Degree Days  
Heating Degree Days 38 49  
Month to date heating degree days 441  
Since 1 July heating degree days 3804  
Cooling Degree Days 0 0  
Month to date cooling degree days 0  
Year to date cooling degree days 0  
Moisture  
Dew Point 21 °F    
Average Humidity 75    
Maximum Humidity 86    
Minimum Humidity 55    
Precipitation  
Precipitation 0.00 in 0.01 in 0.17 in (1993)
Month to date precipitation 0.07  
Year to date precipitation 0.07  
Sea Level Pressure  
Sea Level Pressure 30.10 in    
Wind  
Wind Speed 23 mph (SE)    
Max Wind Speed 38 mph    
Max Gust Speed 51 mph    
Visibility 10 miles    
Events      
T = Trace of Precipitation, MM = Missing Value Source: NWS Daily Summary

Daily Weather History Graph

Daily Weather History Graph

Search for Another Location

Airport or City:

Trip Planner

Search our weather history database for the weather conditions in past years. The results will help you decide how hot, cold, wet, or windy it might be!

Date:

Astronomy

Jan. 09, 2013 Rise Set
Actual Time 7:45 AM MST 4:55 PM MST
Civil Twilight 7:12 AM MST 5:27 PM MST
Nautical Twilight 6:37 AM MST 6:03 PM MST
Astronomical Twilight 6:02 AM MST 6:38 PM MST
Moon 5:27 AM MST (1/9) 3:00 PM MST (1/9)
Length of Visible Light 10h 15m
Length of Day
9h 10m
Waning Crescent, 6% of the Moon is Illuminated
Jan 9
Waning Crescent
Jan 11
New
Jan 18
First Quarter
Jan 26
Full
Feb 3
Last Quarter

Hourly Weather History & Observations

Time (MST) Temp. Windchill Dew Point Humidity Pressure Visibility Wind Dir Wind Speed Gust Speed Precip Events Conditions
12:15 AM 26.6 °F 12.4 °F 19.4 °F 74% 30.18 in 10.0 mi SSE 21.9 mph - N/A   Clear
12:35 AM 26.6 °F 13.1 °F 19.4 °F 74% 30.19 in 10.0 mi South 19.6 mph 25.3 mph N/A   Clear
12:55 AM 26.6 °F 13.1 °F 19.4 °F 74% 30.19 in 10.0 mi SSE 19.6 mph 24.2 mph N/A   Clear
1:15 AM 28.4 °F 15.1 °F 19.4 °F 69% 30.18 in 10.0 mi South 20.7 mph 28.8 mph N/A   Clear
1:35 AM 28.4 °F 15.1 °F 19.4 °F 69% 30.20 in 10.0 mi South 20.7 mph - N/A   Clear
1:55 AM 28.4 °F 15.1 °F 19.4 °F 69% 30.21 in 10.0 mi SSE 20.7 mph 24.2 mph N/A   Clear
2:15 AM 26.6 °F 13.1 °F 19.4 °F 74% 30.20 in 10.0 mi SSE 19.6 mph 27.6 mph N/A   Clear
2:35 AM 23.0 °F 8.7 °F 17.6 °F 80% 30.20 in 10.0 mi SSE 18.4 mph 24.2 mph N/A   Clear
2:55 AM 24.8 °F 11.9 °F 17.6 °F 74% 30.20 in 10.0 mi SSE 16.1 mph 24.2 mph N/A   Clear
3:15 AM 23.0 °F 8.7 °F 17.6 °F 80% 30.20 in 10.0 mi SSE 18.4 mph 33.4 mph N/A   Clear
3:35 AM 26.6 °F 13.4 °F 19.4 °F 74% 30.19 in 10.0 mi SSE 18.4 mph 26.5 mph N/A   Clear
3:55 AM 28.4 °F 14.7 °F 19.4 °F 69% 30.20 in 10.0 mi SSE 21.9 mph 31.1 mph N/A   Clear
4:15 AM 30.2 °F 18.1 °F 19.4 °F 64% 30.20 in 10.0 mi SSE 18.4 mph 33.4 mph N/A   Clear
4:35 AM 24.8 °F 12.9 °F 17.6 °F 74% 30.20 in 10.0 mi SE 13.8 mph - N/A   Clear
4:55 AM 23.0 °F 9.6 °F 17.6 °F 80% 30.20 in 10.0 mi SSE 16.1 mph 21.9 mph N/A   Clear
5:15 AM 21.2 °F 6.8 °F 17.6 °F 86% 30.19 in 10.0 mi SE 17.3 mph 21.9 mph N/A   Clear
5:35 AM 21.2 °F 8.9 °F 17.6 °F 86% 30.19 in 10.0 mi SE 12.7 mph - N/A   Clear
6:35 AM 26.6 °F 15.2 °F 19.4 °F 74% 30.20 in 10.0 mi SSE 13.8 mph 20.7 mph N/A   Clear
6:55 AM 26.6 °F 14.7 °F 19.4 °F 74% 30.20 in 10.0 mi SE 15.0 mph - N/A   Clear
7:15 AM 30.2 °F 20.8 °F 19.4 °F 64% 30.21 in 10.0 mi SE 11.5 mph - N/A   Clear
7:35 AM 30.2 °F 21.3 °F 19.4 °F 64% 30.21 in 10.0 mi SE 10.4 mph - N/A   Clear
7:55 AM 32.0 °F 22.1 °F 17.6 °F 55% 30.21 in 10.0 mi South 13.8 mph 19.6 mph N/A   Clear
8:15 AM 24.8 °F 11.9 °F 19.4 °F 80% 30.20 in 10.0 mi SE 16.1 mph - N/A   Clear
8:35 AM 23.0 °F 8.0 °F 19.4 °F 86% 30.18 in 10.0 mi SE 20.7 mph - N/A   Clear
8:55 AM 24.8 °F 10.7 °F 19.4 °F 80% 30.18 in 10.0 mi SE 19.6 mph 26.5 mph N/A   Clear
9:15 AM 24.8 °F 11.5 °F 21.2 °F 86% 30.20 in 10.0 mi SE 17.3 mph - N/A   Clear
9:35 AM 26.6 °F 13.1 °F 19.4 °F 74% 30.21 in 10.0 mi SE 19.6 mph - N/A   Clear
9:55 AM 26.6 °F 14.3 °F 19.4 °F 74% 30.22 in 10.0 mi ESE 16.1 mph - N/A   Clear
10:15 AM 26.6 °F 12.4 °F 19.4 °F 74% 30.21 in 10.0 mi SE 21.9 mph - N/A   Clear
10:35 AM 28.4 °F 15.1 °F 21.2 °F 74% 30.20 in 10.0 mi SE 20.7 mph - N/A   Clear
10:55 AM 28.4 °F 15.4 °F 21.2 °F 74% 30.18 in 10.0 mi SE 19.6 mph - N/A   Clear
11:15 AM 28.4 °F 14.1 °F 21.2 °F 74% 30.17 in 10.0 mi SE 24.2 mph - N/A   Clear
11:35 AM 28.4 °F 14.1 °F 21.2 °F 74% 30.15 in 10.0 mi SE 24.2 mph - N/A   Clear
11:55 AM 28.4 °F 13.5 °F 21.2 °F 74% 30.14 in 10.0 mi SE 26.5 mph - N/A   Clear
12:15 PM 28.4 °F 13.3 °F 21.2 °F 74% 30.12 in 10.0 mi SE 27.6 mph - N/A   Clear
12:35 PM 28.4 °F 14.1 °F 21.2 °F 74% 30.12 in 10.0 mi SE 24.2 mph - N/A   Clear
12:55 PM 28.4 °F 12.7 °F 21.2 °F 74% 30.10 in 10.0 mi SE 29.9 mph 33.4 mph N/A   Clear
1:15 PM 28.4 °F 12.3 °F 23.0 °F 80% 30.08 in 10.0 mi SE 32.2 mph - N/A   Clear
1:35 PM 30.2 °F 14.9 °F 23.0 °F 75% 30.08 in 10.0 mi ESE 31.1 mph - N/A   Clear
1:55 PM 30.2 °F 14.3 °F 23.0 °F 75% 30.07 in 10.0 mi SE 34.5 mph - N/A   Clear
2:15 PM 32.0 °F 16.7 °F 23.0 °F 69% 30.07 in 10.0 mi SE 34.5 mph 39.1 mph N/A   Clear
2:35 PM 32.0 °F 16.5 °F 24.8 °F 75% 30.06 in 10.0 mi ESE 35.7 mph 40.3 mph N/A   Clear
2:55 PM 30.2 °F 14.3 °F 24.8 °F 80% 30.06 in 10.0 mi ESE 34.5 mph 41.4 mph N/A   Clear
3:15 PM 30.2 °F 14.3 °F 26.6 °F 86% 30.06 in 10.0 mi ESE 34.5 mph 40.3 mph N/A   Clear
3:35 PM 30.2 °F 14.1 °F 26.6 °F 86% 30.05 in 10.0 mi SE 35.7 mph 40.3 mph N/A   Clear
3:55 PM 30.2 °F 13.7 °F 26.6 °F 86% 30.05 in 10.0 mi SE 38.0 mph 41.4 mph N/A   Clear
4:15 PM 30.2 °F 14.1 °F 24.8 °F 80% 30.04 in 10.0 mi SE 35.7 mph 50.6 mph N/A   Clear
4:35 PM 30.2 °F 13.9 °F 23.0 °F 75% 30.02 in 10.0 mi ESE 36.8 mph - N/A   Clear
4:55 PM 30.2 °F 14.3 °F 23.0 °F 75% 30.02 in 10.0 mi ESE 34.5 mph - N/A   Clear
5:35 PM 30.2 °F 14.3 °F 23.0 °F 75% 29.99 in 10.0 mi SE 34.5 mph - N/A   Clear
5:55 PM 30.2 °F 14.7 °F 23.0 °F 75% 30.00 in 10.0 mi SE 32.2 mph - N/A   Clear
6:15 PM 30.2 °F 14.5 °F 23.0 °F 75% 30.00 in 10.0 mi SE 33.4 mph 38.0 mph N/A   Clear
6:35 PM 30.2 °F 14.7 °F 23.0 °F 75% 30.00 in 10.0 mi SE 32.2 mph 39.1 mph N/A   Clear
6:55 PM 30.2 °F 14.7 °F 23.0 °F 75% 30.00 in 10.0 mi SE 32.2 mph 39.1 mph N/A   Clear
7:15 PM 28.4 °F 13.3 °F 23.0 °F 80% 30.00 in 10.0 mi SE 27.6 mph 33.4 mph N/A   Clear
7:35 PM 28.4 °F 13.3 °F 23.0 °F 80% 29.99 in 10.0 mi ESE 27.6 mph - N/A   Clear
7:55 PM 28.4 °F 14.4 °F 21.2 °F 74% 29.99 in 10.0 mi ESE 23.0 mph - N/A   Clear
8:35 PM 26.6 °F 10.3 °F 21.2 °F 80% 29.96 in 10.0 mi SE 29.9 mph - N/A   Clear
8:55 PM 28.4 °F 13.0 °F 21.2 °F 74% 29.95 in 10.0 mi SE 28.8 mph 34.5 mph N/A   Clear
9:15 PM 28.4 °F 12.5 °F 21.2 °F 74% 29.94 in 10.0 mi SE 31.1 mph 36.8 mph N/A   Clear
9:35 PM 28.4 °F 12.3 °F 21.2 °F 74% 29.94 in 10.0 mi SE 32.2 mph - N/A   Clear
9:55 PM 28.4 °F 11.6 °F 19.4 °F 69% 29.93 in 10.0 mi ESE 35.7 mph - N/A   Clear
10:15 PM 28.4 °F 12.0 °F 19.4 °F 69% 29.93 in 10.0 mi ESE 33.4 mph 39.1 mph N/A   Clear
10:35 PM 26.6 °F 9.8 °F 19.4 °F 74% 29.92 in 10.0 mi SE 32.2 mph - N/A   Clear
10:55 PM 26.6 °F 10.3 °F 19.4 °F 74% 29.92 in 10.0 mi SE 29.9 mph - N/A   Clear
11:15 PM 26.6 °F 10.0 °F 19.4 °F 74% 29.91 in 10.0 mi SE 31.1 mph - N/A   Clear
11:35 PM 26.6 °F 9.3 °F 19.4 °F 74% 29.89 in 10.0 mi SE 34.5 mph - N/A   Clear
11:55 PM 26.6 °F 9.1 °F 19.4 °F 74% 29.88 in 10.0 mi SE 35.7 mph 40.3 mph N/A   Clear